www.pogodaiklimat.ru

ПОГОДА в Лотене, OK

  • Прогноз погоды в Лотене
  • Монитор погоды в Лотене
  • Климат в Лотене

АРХИВ ПОГОДЫ в Лотене

Время (UTC), дата Ветер
(напр.,м/с)
 
Видим.   Явления Облачность Т
(С)
Тd
(С)
f
(%)
Тe
(С)
Тes
(С)
Комфортность

P
(гПа)

Po
(гПа)
Тmin
(С)
Tmax
(С)
R
(мм)
SD
(см)
00:53 20.03 Ю  16 км    5/0 3600 м
[средняя] 
+14.4  +2.8  46  +13  +13    1020.1  980.0         
01:53 20.03 Ю  16 км    10/0 2850 м
[средняя] 
+14.4  +3.3  47  +14  +14    1020.5  980.3         
02:53 20.03 ЮВ  16 км    10/0 2850 м
[средняя] 
+15.0  +3.3  45  +14  +14    1020.9  980.9         
03:53 20.03 С  16 км    10/0 2850 м
[средняя] 
+15.6  +3.9  46  +15  +15    1021.7  981.9         
04:53 20.03 С  16 км    10/0 2850 м
[средняя] 
+12.2  +5.0  61  +11  +11    1021.8  981.9  +12.2  +20.0     
05:53 20.03 С  16 км    10/0 2700 м
[средняя] 
+12.8  +6.1  64  +11  +11    1022.1  982.2         
06:53 20.03 С  16 км    10/0 2700 м
[средняя] 
+12.8  +6.1  64  +10  +10    1022.6  982.6         
07:53 20.03 С  16 км    5/0 3300 м
[средняя] 
+11.7  +6.1  68  +8  +8    1023.3  983.2         
08:53 20.03 СВ  16 км    8/0 3300 м
[средняя] 
+11.1  +6.1  71  +8  +8    1022.8  982.9         
09:53 20.03 С  16 км    10/0 2100 м
[средняя] 
+11.1  +5.6  69  +8  +8    1023.7  983.5         
10:53 20.03 С  16 км    10/0 3000 м
[средняя] 
+10.0  +6.1  77  +6  +6    1023.8  983.5  +10.0  +12.8     
11:53 20.03 С  16 км    10/0 3000 м
[средняя] 
+10.0  +5.6  74  +7  +7    1024.9  984.5         
12:53 20.03   16 км    10/8 1800 м
[средняя] 
+10.0  +6.1  77  +9  +9    1025.5  985.2         
13:53 20.03   14 км    10/8 1800 м
[средняя] 
+10.0  +7.8  86  +9  +9    1026.3  985.8      0.3   
14:53 20.03 С  16 км    8/0 2700 м
[средняя] 
+11.7  +7.8  77  +10  +12    1026.6  986.1         
15:53 20.03 С  16 км    ясно  +13.9  +6.7  62  +13  +19    1026.6  986.1         
16:53 20.03 С  16 км    2/2 990 м  +16.7  +5.6  48  +16  +21    1025.9  985.5  +9.4  +16.7  0.3   
17:53 20.03 СЗ  16 км    ясно  +17.8  +4.4  41  +18  +27    1024.7  984.5         
18:53 20.03 нст  3
{8} 
16 км    ясно  +17.8  +1.7  34  +18  +30  опасность
простуды 
1023.5  983.5         
19:53 20.03 СЗ  6
{10} 
16 км    ясно  +19.4  -0.6  26  +19  +23    1022.7  982.6         
20:53 20.03 СЗ  4
{9} 
16 км    ясно  +19.4  -1.7  24  +19  +24    1022.0  981.9         
21:53 20.03 СЗ  3
{8} 
16 км    ясно  +19.4  -1.7  24  +19  +24    1021.7  981.6         
22:53 20.03 СЗ  16 км    ясно  +18.9  -1.7  25  +19  +21    1021.8  981.6  +15.6  +20.0     
23:53 20.03   16 км    ясно  +16.1  -0.6  32  +16  +17    1022.0  981.9         
00:53 21.03   16 км    ясно  +12.2  +0.6  45  +12  +12    1022.4  981.9         
01:53 21.03 З  16 км    ясно  +8.9  +2.8  66  +8  +8    1022.8  982.2         
02:53 21.03 СЗ  16 км    ясно  +9.4  +2.8  63  +8  +8    1023.1  982.6         
03:53 21.03 З  16 км    ясно  +7.2  +2.2  71  +6  +6    1022.9  982.6         
04:53 21.03 З  16 км    ясно  +7.2  +1.7  68  +6  +6    1022.6  982.2  +6.7  +18.9     
05:53 21.03 З  16 км    ясно  +7.2  +1.7  68  +5  +5    1022.3  981.9         
06:53 21.03 З  16 км    ясно  +6.7  +1.7  70  +4  +4    1022.3  981.9         
07:53 21.03 З  16 км    ясно  +7.2  +2.2  71  +4  +4    1021.8  981.6         
08:53 21.03 З  16 км    ясно  +6.7  +1.1  67  +4  +4    1021.4  981.3         
09:53 21.03 З  16 км    ясно  +6.7  +1.1  67  +4  +4    1021.8  981.6         
10:53 21.03   16 км    ясно  +6.1  +1.1  70  +5  +5    1022.4  982.2  +5.6  +7.8     
11:53 21.03 СВ  16 км    ясно  +3.9  +1.1  82  +1  +1    1022.9  982.2         
12:53 21.03 С  16 км    ясно  +10.0  +2.8  61  +8  +9    1023.5  983.2         
13:53 21.03 СВ  16 км    ясно  +13.9  +0.6  40  +12  +13    1024.0  983.5         
14:53 21.03 СВ  16 км    ясно  +16.1  +2.2  39  +15  +17    1024.0  983.5         
15:53 21.03 СВ  16 км    ясно  +18.9  +2.8  34  +19  +22    1023.8  983.5         
16:53 21.03 СВ  16 км    ясно  +21.1  +3.3  31  +21  +29  комфорт  1023.4  983.2  +3.9  +21.1     
17:53 21.03 СВ  16 км    ясно  +21.7  +2.8  29  +22  +34  комфорт  1022.7  982.6         
18:53 21.03 нст  16 км    ясно  +22.8  +1.7  25  +22  +38  комфорт  1021.9  981.9         
19:53 21.03 нст  16 км    ясно  +22.8  +1.7  25  +22  +34  комфорт  1021.1  980.9         
20:53 21.03 С  16 км    ясно  +23.3  +2.2  25  +23  +33  комфорт  1020.4  980.3         
21:53 21.03 Ю  16 км    ясно  +22.8  +1.7  25  +22  +28  комфорт  1020.2  980.3         
22:53 21.03 СВ  16 км    ясно  +21.1  +2.8  30  +21  +23  комфорт  1020.2  980.0  +20.0  +23.3     
23:53 21.03 СВ  16 км    ясно  +17.8  +4.4  41  +18  +18    1020.2  980.0         

 

Местоположение метеостанции Lawton Municipal Airport: широта 34.5575 долгота -98.4167 высота над уровнем моря 338 м.

В архиве по умолчанию представлена погода в Лотене за последние 1-2 суток. Обновление информации о фактической погоде в базе происходит ежечасно! Архивные данные за месяц целиком и за предыдущие месяцы Вы можете получить, выбрав интересующий диапазон дат из раскрывающегося списка и нажав кнопку "Ввод!".

Внимание! Архив погоды МЕТАР в базе сайта хранится не более 60 дней. Нет смысла пытаться выбрать более раннюю дату.

Внимание! Время в таблицах - всемирное. Для получения местного времени необходимо прибавить поправку, которая в Лотене равна -6 ч.

Ветер - указаны скорость ветра в м/с и направление, откуда дует ветер: С - северный, СВ - северо-восточный, В - восточный, ЮВ - юго-восточный, Ю - южный, ЮЗ - юго-западный, З - западный, СЗ - северо-западный.
Видимость - горизонтальная дальность видимости в метрах или километрах. При видимости от 1 до 10 км при отсутствии осадков обычно наблюдается дымка, при ухудшении видимости до 1 км и менее - туман. В сухую погоду видимость может ухудшаться дымом, пылью или мглою.
Атмосферные явления - указаны явления, наблюдавшиеся в указанный момент времени.
Облачность - указаны через наклонную черту верхняя и нижняя облачность в баллах и высота нижней границы облаков в метрах. Внимание: облачность, как и прочие метеорологические величины в США измеряются автоматическими метеостанциями. Указанные значения в баллах носят условный характер и показывают процент времени, в течение которого, в среднем, лазерный луч высотомера отражался от облаков обратно.
T - Температура воздуха - температура, измеренная на высоте 2 м над землей.
Td - Температура точки росы - температура, при понижении до которой содержащийся в воздухе водяной пар достигнет насыщения.
f - Относительная влажность воздуха - влажноcть воздуха, измеренная на высоте 2 м над землей.
Te - Эффективная температура - температура, которую ощущает одетый по сезону человек в тени. Характеристика душности погоды. При расчете учитывается влияние влажности воздуха и скорости ветра на теплоощущения человека.
Tes - Эффективная температура на солнце - температура, которую ощущает человек, с поправкой на солнечный нагрев. Характеристика знойности погоды. Зависит от высоты солнца над горизонтом, облачности и скорости ветра. Ночью, в пасмурную погоду, а также при ветре 12 м/с и более поправка равна нулю.
P - Атмосферное давление - приведенное к уровню моря атмосферное давление.
Po - Атмосферное давление - измеренное на уровне метеостанции атмосферное давление.
Tmin - Минимальная температура - минимум температуры воздуха на высоте 2 м над землей.
Tmax - Максимальная температура - максимум температуры воздуха на высоте 2 м над землей.
R - Количество осадков - Количество выпавших осадков за 3 или 6 часов, мм.
SD - Снежный покров - Высота снежного покрова, см.